Tracking 30995 objects as of 5-Jul-2025
HD Live streaming from Space Station
objects crossing your sky now

STARLINK-32937

Track STARLINK-32937 now!
10-day predictions
STARLINK-32937 is classified as:


NORAD ID: 63148
Int'l Code: 2025-043S
Perigee: 489.1 km
Apogee: 491.2 km
Inclination: 43.0 °
Period: 94.3 minutes
Semi major axis: 6861 km
RCS: Unknown
Launch date: March 2, 2024
Source: United States (US)
Launch site: AIR FORCE EASTERN TEST RANGE (AFETR)
Your satellite tracking list
OPS 7518 (NTS 1)
Track 1 satellite(s)




NASA's NSSDC Master Catalog

Two Line Element Set (TLE):
1 63148U 25043S   25185.87885608  .00016271  00000-0  59901-3 0  9991
2 63148  42.9993 335.6719 0001540 199.5870 160.4922 15.27606188 20036
Source of the keplerian elements: AFSPC